Back to catalog

NESS

AliveScienceSSO
NORAD 58020·PAYLOAD·🇫🇷 France

Launched Oct 9, 2023 from Guiana Space Centre

Loading…

Next Passes (next 24 hours)

TLE

FreshSource: Space-Track

Epoch: Sep 14, 2026, 04:38 UTC

1 58020U 23155E   26257.19335703  .00013145  00000-0  41832-3 0  9999
2 58020  97.5876 345.0866 0004609 234.9663 125.1146 15.32711061162111

Track NESS in real time with AllMySat

Download on the App Store